Roswell, NM

7:29 AM MDT on May 29, 2017 (GMT -0600)
Roswell Industrial

Weather History for KROW - May, 2013

Change the Weather History Date:

Thursday, May 9, 2013

  Actual Average Record
Temperature  
Mean Temperature 67 °F 68 °F  
Max Temperature 82 °F 83 °F 100 °F (1967)
Min Temperature 51 °F 53 °F 34 °F (1965)
Degree Days  
Heating Degree Days 0 1  
Month to date heating degree days 42 16  
Since 1 July heating degree days 2975 3274  
Cooling Degree Days 2 4  
Month to date cooling degree days 15 31  
Year to date cooling degree days 81 71  
Growing Degree Days 16 (Base 50)    
Moisture  
Dew Point 28 °F    
Average Humidity 29    
Maximum Humidity 46    
Minimum Humidity 12    
Precipitation  
Precipitation 0.00 in 0.04 in 1.12 in (1947)
Month to date precipitation 0.00 0.32  
Year to date precipitation 0.44 2.24  
Sea Level Pressure  
Sea Level Pressure 29.81 in    
Wind  
Wind Speed 10 mph (North)    
Max Wind Speed 29 mph    
Max Gust Speed 33 mph    
Visibility 10 miles    
Events      
T = Trace of Precipitation, MM = Missing Value Source: NWS Daily Summary

Daily Weather History Graph

Daily Weather History Graph

Search for Another Location

Airport or City:

Trip Planner

Search our weather history database for the weather conditions in past years. The results will help you decide how hot, cold, wet, or windy it might be!

Date:

Astronomy

May. 09, 2013 Rise Set
Actual Time 6:02 AM MDT 7:47 PM MDT
Civil Twilight 5:35 AM MDT 8:14 PM MDT
Nautical Twilight 5:03 AM MDT 8:46 PM MDT
Astronomical Twilight 4:28 AM MDT 9:21 PM MDT
Moon 5:47 AM MDT (5/9) 7:44 PM MDT (5/9)
Length of Visible Light 14h 38m
Length of Day
13h 44m
Waning Crescent, 0% of the Moon is Illuminated
May 9
Waning Crescent
May 9
New
May 17
First Quarter
May 24
Full
May 31
Last Quarter

Hourly Weather History & Observations

Time (MDT) Temp. Dew Point Humidity Pressure Visibility Wind Dir Wind Speed Gust Speed Precip Events Conditions
12:51 AM 62.1 °F 10.0 °F 13% 29.74 in 10.0 mi West 6.9 mph - N/A   Clear
1:51 AM 57.0 °F 14.0 °F 18% 29.74 in 10.0 mi NNE 9.2 mph - N/A   Clear
2:51 AM 60.1 °F 12.9 °F 16% 29.75 in 10.0 mi NNW 6.9 mph - N/A   Clear
3:51 AM 55.9 °F 14.0 °F 19% 29.77 in 10.0 mi North 8.1 mph - N/A   Clear
4:51 AM 59.0 °F 17.1 °F 20% 29.78 in 10.0 mi North 13.8 mph - N/A   Clear
5:51 AM 53.1 °F 25.0 °F 34% 29.82 in 10.0 mi North 12.7 mph - N/A   Clear
6:51 AM 53.1 °F 30.0 °F 41% 29.86 in 10.0 mi North 10.4 mph - N/A   Clear
7:51 AM 57.9 °F 36.0 °F 44% 29.86 in 10.0 mi North 12.7 mph - N/A   Clear
8:51 AM 62.1 °F 37.9 °F 41% 29.87 in 10.0 mi North 12.7 mph - N/A   Clear
9:51 AM 66.9 °F 39.0 °F 36% 29.86 in 10.0 mi North 15.0 mph - N/A   Clear
10:51 AM 70.0 °F 37.0 °F 30% 29.87 in 10.0 mi NNE 11.5 mph - N/A   Clear
11:51 AM 73.9 °F 36.0 °F 25% 29.85 in 10.0 mi North 13.8 mph - N/A   Clear
12:51 PM 75.9 °F 30.9 °F 19% 29.83 in 10.0 mi North 9.2 mph 18.4 mph N/A   Clear
1:51 PM 77.0 °F 28.9 °F 17% 29.82 in 10.0 mi Variable 3.5 mph - N/A   Clear
2:51 PM 79.0 °F 23.0 °F 13% 29.78 in 10.0 mi WSW 8.1 mph - N/A   Clear
3:51 PM 79.0 °F 26.1 °F 14% 29.78 in 10.0 mi SSW 8.1 mph - N/A   Clear
4:51 PM 80.1 °F 26.1 °F 14% 29.75 in 10.0 mi NNE 4.6 mph - N/A   Scattered Clouds
5:51 PM 81.0 °F 26.1 °F 13% 29.76 in 10.0 mi NE 8.1 mph - N/A   Clear
6:51 PM 79.0 °F 26.1 °F 14% 29.76 in 10.0 mi NE 4.6 mph - N/A   Clear
8:51 PM 71.1 °F 28.9 °F 21% 29.80 in 10.0 mi NE 3.5 mph - N/A   Clear
9:51 PM 69.1 °F 27.0 °F 21% 29.82 in 10.0 mi NW 3.5 mph - N/A   Clear
10:51 PM 64.9 °F 33.1 °F 31% 29.85 in 10.0 mi NNE 11.5 mph - N/A   Clear
11:51 PM 63.0 °F 41.0 °F 45% 29.90 in 7.0 mi NNE 23.0 mph 29.9 mph N/A   Partly Cloudy